Change the Weather History Date:

Monday, February 10, 2014

  Actual Average Record
Temperature  
Mean Temperature 56 °F 52 °F  
Max Temperature 60 °F 61 °F 76 °F (2002)
Min Temperature 51 °F 44 °F 37 °F (2013)
Degree Days  
Heating Degree Days 9    
Month to date heating degree days 124  
Since 1 July heating degree days 1627  
Cooling Degree Days 0    
Month to date cooling degree days 0  
Year to date cooling degree days 2  
Growing Degree Days 5 (Base 50)    
Moisture  
Dew Point 53 °F    
Average Humidity 92    
Maximum Humidity 100    
Minimum Humidity 84    
Precipitation  
Precipitation 0.02 in - 0.48 in (2001)
Month to date precipitation 1.55  
Year to date precipitation 1.62  
Since 1 July precipitation 2.90  
Sea Level Pressure  
Sea Level Pressure 30.26 in    
Wind  
Wind Speed 4 mph (West)    
Max Wind Speed 10 mph    
Max Gust Speed 14 mph    
Visibility 6 miles    
Events Fog    
T = Trace of Precipitation, MM = Missing Value Source: NWS Daily Summary

Daily Weather History Graph

Daily Weather History Graph

Search for Another Location

Airport or City:

Trip Planner

Search our weather history database for the weather conditions in past years. The results will help you decide how hot, cold, wet, or windy it might be!

Date:

Astronomy

Feb. 10, 2014 Rise Set
Actual Time 7:00 AM PST 5:43 PM PST
Civil Twilight 6:34 AM PST 6:09 PM PST
Nautical Twilight 6:03 AM PST 6:40 PM PST
Astronomical Twilight 5:33 AM PST 7:10 PM PST
Moon 2:19 PM PST (2/10) 3:55 AM PST (2/10)
Length of Visible Light 11h 35m
Length of Day
10h 42m
Waxing Gibbous, 85% of the Moon is Illuminated
Feb 10
Waxing Gibbous
Feb 14
Full
Feb 22
Last Quarter
Mar 1
New
Mar 8
First Quarter

Hourly Weather History & Observations

Time (PST) Temp. Dew Point Humidity Pressure Visibility Wind Dir Wind Speed Gust Speed Precip Events Conditions
12:54 AM 59.0 °F 55.0 °F 87% 30.19 in 10.0 mi SSW 5.8 mph - N/A   Overcast
1:54 AM 57.9 °F 55.0 °F 90% 30.21 in 10.0 mi SW 6.9 mph - N/A   Overcast
2:04 AM 57.2 °F 55.4 °F 94% 30.17 in 10.0 mi SW 10.4 mph - N/A   Overcast
2:18 AM 57.2 °F 53.6 °F 88% 30.18 in 6.0 mi West 8.1 mph - N/A   Overcast
2:32 AM 55.4 °F 53.6 °F 94% 30.18 in 4.0 mi WSW 8.1 mph - N/A   Overcast
2:54 AM 55.0 °F 53.1 °F 93% 30.22 in 10.0 mi WSW 6.9 mph - N/A   Overcast
3:08 AM 55.4 °F 53.6 °F 94% 30.18 in 7.0 mi WSW 5.8 mph - N/A   Overcast
3:40 AM 55.4 °F 53.6 °F 94% 30.18 in 3.0 mi WSW 6.9 mph - N/A   Overcast
3:54 AM 55.0 °F 53.1 °F 93% 30.22 in 2.5 mi WSW 8.1 mph - N/A   Overcast
4:02 AM 55.4 °F 53.6 °F 94% 30.18 in 4.0 mi SW 6.9 mph - N/A   Overcast
4:54 AM 55.0 °F 54.0 °F 96% 30.24 in 4.0 mi WSW 4.6 mph - N/A   Overcast
5:09 AM 55.4 °F 53.6 °F 94% 30.20 in 2.0 mi West 3.5 mph - N/A   Overcast
5:36 AM 55.4 °F 53.6 °F 94% 30.21 in 4.0 mi Calm Calm - 0.01 in   Overcast
5:54 AM 54.0 °F 54.0 °F 100% 30.25 in 4.0 mi SW 3.5 mph - 0.01 in   Overcast
6:54 AM 54.0 °F 54.0 °F 100% 30.27 in 3.0 mi Calm Calm - N/A   Overcast
7:21 AM 53.6 °F 53.6 °F 100% 30.23 in 10.0 mi Calm Calm - N/A   Overcast
7:29 AM 53.6 °F 53.6 °F 100% 30.24 in 10.0 mi Calm Calm - N/A   Overcast
7:44 AM 53.6 °F 53.6 °F 100% 30.24 in 10.0 mi Calm Calm - N/A   Overcast
7:54 AM 55.0 °F 55.0 °F 100% 30.28 in 10.0 mi Calm Calm - N/A   Overcast
8:19 AM 55.4 °F 55.4 °F 100% 30.26 in 10.0 mi Calm Calm - N/A   Overcast
8:41 AM 55.4 °F 55.4 °F 100% 30.26 in 10.0 mi SW 3.5 mph - N/A   Overcast
8:54 AM 55.0 °F 55.0 °F 100% 30.30 in 10.0 mi Calm Calm - N/A   Overcast
9:19 AM 55.4 °F 55.4 °F 100% 30.26 in 10.0 mi Calm Calm - N/A   Overcast
9:37 AM 55.4 °F 55.4 °F 100% 30.27 in 10.0 mi West 5.8 mph - N/A   Overcast
9:54 AM 55.9 °F 54.0 °F 93% 30.32 in 10.0 mi West 6.9 mph - N/A   Overcast
10:13 AM 55.4 °F 53.6 °F 94% 30.29 in 9.0 mi WNW 6.9 mph - N/A   Overcast
10:23 AM 55.4 °F 53.6 °F 94% 30.30 in 1.8 mi West 4.6 mph - N/A   Overcast
10:54 AM 55.9 °F 54.0 °F 93% 30.33 in 1.0 mi West 5.8 mph - N/A   Overcast
11:13 AM 55.4 °F 53.6 °F 94% 30.29 in 3.0 mi WNW 5.8 mph - N/A   Overcast
11:31 AM 55.4 °F 53.6 °F 94% 30.28 in 1.8 mi WNW 5.8 mph - N/A   Overcast
11:40 AM 55.4 °F 53.6 °F 94% 30.29 in 4.0 mi West 6.9 mph - N/A   Overcast
11:52 AM 55.4 °F 53.6 °F 94% 30.29 in 1.8 mi WNW 6.9 mph - N/A   Overcast
11:53 AM 55.9 °F 54.0 °F 93% 30.32 in 1.5 mi WNW 6.9 mph - N/A   Overcast
12:02 PM 55.4 °F 53.6 °F 94% 30.28 in 3.0 mi WNW 5.8 mph - N/A   Overcast
12:26 PM 55.4 °F 53.6 °F 94% 30.28 in 2.5 mi WNW 8.1 mph - N/A   Overcast
12:36 PM 55.4 °F 53.6 °F 94% 30.28 in 7.0 mi West 8.1 mph - N/A   Overcast
12:54 PM 55.0 °F 52.0 °F 89% 30.32 in 10.0 mi WNW 8.1 mph - N/A   Overcast
1:13 PM 55.4 °F 51.8 °F 88% 30.27 in 10.0 mi WNW 5.8 mph - N/A   Overcast
1:54 PM 55.0 °F 52.0 °F 89% 30.30 in 10.0 mi WNW 8.1 mph - N/A   Overcast
2:54 PM 55.0 °F 52.0 °F 89% 30.29 in 10.0 mi West 5.8 mph - N/A   Overcast
3:54 PM 55.0 °F 51.1 °F 86% 30.27 in 10.0 mi NW 4.6 mph - N/A   Overcast
4:54 PM 55.0 °F 52.0 °F 89% 30.27 in 10.0 mi Calm Calm - N/A   Overcast
5:54 PM 54.0 °F 51.1 °F 90% 30.27 in 10.0 mi Calm Calm - N/A   Scattered Clouds
6:54 PM 52.0 °F 50.0 °F 93% 30.27 in 10.0 mi Calm Calm - N/A   Scattered Clouds
7:29 PM 51.8 °F 50.0 °F 94% 30.24 in 10.0 mi Calm Calm - N/A   Mostly Cloudy
7:40 PM 53.6 °F 50.0 °F 88% 30.25 in 10.0 mi SSW 3.5 mph - N/A   Overcast
7:54 PM 53.1 °F 51.1 °F 93% 30.29 in 7.0 mi SW 3.5 mph - N/A   Overcast
8:07 PM 53.6 °F 51.8 °F 94% 30.24 in 2.5 mi Calm Calm - N/A   Overcast
8:18 PM 53.6 °F 51.8 °F 94% 30.24 in 1.5 mi Calm Calm - N/A   Overcast
8:27 PM 53.6 °F 51.8 °F 94% 30.25 in 0.8 mi West 3.5 mph - N/A   Overcast
8:35 PM 53.6 °F 51.8 °F 94% 30.25 in 0.5 mi WSW 3.5 mph - N/A Fog Fog
8:54 PM 53.1 °F 52.0 °F 96% 30.29 in 0.5 mi Calm Calm - N/A Fog Fog
9:19 PM 53.6 °F 51.8 °F 94% 30.25 in 1.0 mi Calm Calm - N/A   Mist
9:54 PM 52.0 °F 51.1 °F 97% 30.28 in 1.2 mi Calm Calm - 0.01 in   Overcast
10:10 PM 51.8 °F 51.8 °F 100% 30.24 in 0.8 mi Calm Calm - N/A   Overcast
10:54 PM 51.1 °F 50.0 °F 96% 30.27 in 0.2 mi Calm Calm - N/A Fog Fog
11:01 PM 51.8 °F 51.8 °F 100% 30.24 in 0.5 mi Calm Calm - N/A Fog Fog
11:19 PM 51.8 °F 50.0 °F 94% 30.24 in 1.2 mi Calm Calm - N/A   Overcast
11:34 PM 51.8 °F 51.8 °F 100% 30.24 in 0.8 mi Calm Calm - N/A   Mist
11:54 PM 52.0 °F 50.0 °F 93% 30.28 in 0.5 mi Calm Calm - N/A Fog Fog